Wind_Speed
26 25 26 27 27 28 28 29 31 33 34 35 35 34 34 37 39 39 37 32 28 27 25 23 24 27 28 29 34 38 40 43 40 40 42 38 35 35 31 27 28 27 26 26
28 29 28 27 27 27 27 28 29 31 32 33 32 30 31 31 32 32 31 30 29 29 32 31 31 33 33 35 38 40 40 41 41 45 47 42 41 41 38 32 30 28 33 32
31 31 30 29 29 28 28 28 29 30 31 32 32 30 30 31 33 31 31 30 30 30 32 33 34 33 36 39 42 44 45 43 45 44 49 50 47 47 41 36 35 33 34 35
30 30 30 31 31 31 32 32 32 32 33 33 33 35 35 34 34 33 31 29 30 27 26 29 33 37 39 40 43 46 49 49 53 51 50 57 54 52 46 38 37 39 41 41
29 32 33 33 33 33 35 37 38 39 38 38 38 39 40 38 37 38 37 33 30 30 29 32 36 38 38 37 40 45 49 53 53 51 55 45 54 53 49 44 48 44 37 31
19 29 35 37 37 38 38 40 41 41 42 43 42 43 44 44 42 42 42 38 33 32 33 36 39 40 37 37 39 40 40 41 42 41 46 39 45 44 47 42 45 39 40 36
17 21 27 31 33 34 36 38 38 38 40 41 41 44 47 47 47 46 44 41 36 35 34 37 41 42 39 37 38 39 44 44 41 43 44 36 34 39 48 42 39 38 40 36
18 17 16 19 26 27 28 33 33 34 35 35 36 39 40 42 45 45 44 42 40 38 37 36 37 35 30 30 33 38 40 42 43 45 41 30 29 33 40 34 34 34 37 39
17 13 11 12 17 21 22 27 29 31 33 33 34 34 35 36 36 37 38 39 40 40 38 34 33 27 21 20 23 26 25 30 33 30 26 21 26 21 19 25 29 33 36 37
16 16 14 13 14 18 19 18 23 25 27 30 31 30 30 32 34 35 34 34 34 34 31 31 27 21 15 16 15 14 11 16 18 12 8 9 15 20 24 25 28 31 33 35
20 23 23 23 21 22 25 26 26 27 27 29 29 26 27 28 30 31 30 28 28 28 26 24 22 18 15 13 10 12 12 11 8 10 10 10 15 18 21 24 25 27 30 33
27 29 30 29 28 28 29 30 28 27 26 25 24 28 28 26 26 26 26 25 25 23 22 22 21 17 15 13 9 7 10 12 13 16 17 17 19 21 23 25 26 28 28 30
31 34 36 36 34 32 30 28 28 28 29 26 25 25 23 27 24 21 20 21 21 21 21 22 20 18 16 18 18 17 16 17 19 22 22 22 23 25 27 28 29 32 34 33
31 33 35 36 36 32 29 28 28 30 30 29 28 27 19 18 17 20 22 24 25 25 25 25 25 27 27 27 28 28 27 25 25 25 25 27 28 29 29 28 28 30 34 34
31 32 34 32 33 33 29 28 26 30 34 34 30 31 26 22 21 21 24 28 30 29 30 31 31 31 31 33 34 34 34 33 32 31 31 31 32 34 34 33 32 32 32 31
29 31 30 29 29 29 30 30 28 29 31 30 30 28 30 31 28 27 28 30 30 32 34 34 34 33 33 33 35 36 36 36 35 34 35 34 36 38 38 37 35 35 33 32
21 23 22 23 26 27 27 25 26 26 26 21 21 20 18 20 27 29 30 29 30 33 36 36 37 35 33 34 35 36 37 36 36 36 36 37 38 40 41 39 37 35 34 34
20 19 15 16 21 22 21 21 21 21 21 20 20 21 23 27 30 29 28 27 30 33 34 34 33 32 31 30 30 32 34 35 34 36 37 39 41 43 42 43 40 34 36 36
15 18 20 20 21 21 18 17 19 21 18 16 15 19 26 25 20 21 23 27 28 27 27 26 26 27 28 28 28 29 30 33 33 33 35 36 37 38 37 39 37 35 37 39
22 17 16 18 21 20 19 18 17 18 17 18 17 16 14 16 16 17 18 21 21 22 23 24 25 27 28 28 27 28 29 29 29 29 30 31 32 31 30 31 30 28 30 35
24 21 16 16 17 17 17 18 18 17 15 14 16 18 18 17 17 18 19 17 16 16 18 21 23 26 27 27 26 25 23 22 21 21 20 21 22 22 24 24 24 25 26 26
24 21 18 15 15 16 15 13 12 13 15 15 12 14 16 17 19 19 16 14 13 15 18 21 22 24 24 23 21 20 19 16 14 12 13 15 17 20 21 23 24 24 25 24
26 24 20 17 14 11 9 6 5 7 10 13 12 13 15 16 18 17 14 14 16 19 21 22 22 19 18 18 18 19 19 19 18 19 20 20 20 21 21 20 21 24 26 26
27 28 25 21 17 13 8 4 3 4 5 8 12 13 13 13 14 14 16 19 21 23 22 20 16 14 15 16 16 17 20 19 20 21 23 23 22 23 21 23 26 25 24 26
22 24 24 23 21 17 14 10 8 7 7 9 10 10 11 12 13 15 17 19 19 18 17 14 14 16 15 14 13 14 17 22 23 25 22 21 21 20 23 29 29 30 30 30
17 17 18 19 21 20 17 15 12 9 7 7 7 7 8 9 11 12 14 15 15 15 15 16 17 17 18 18 18 17 17 20 24 27 30 31 29 26 24 27 30 32 34 37
Wind_Direction
223 226 229 235 237 237 234 233 232 232 236 239 244 249 251 253 256 258 259 259 254 251 252 249 244 241 241 245 248 248 251 253 256 260 261 260 262 264 262 263 264 268 273 274
227 227 229 233 236 240 240 238 240 240 240 240 241 245 249 251 254 257 261 260 258 257 258 256 253 249 245 246 246 248 253 257 255 255 255 251 258 260 259 260 262 269 272 266
228 230 231 233 236 239 241 241 239 243 246 246 243 240 244 250 254 256 259 262 261 258 261 262 262 256 256 255 252 254 256 255 253 253 253 242 247 257 255 255 261 269 270 261
229 232 234 237 240 244 248 247 246 243 244 247 249 251 247 253 259 262 262 260 260 263 269 273 270 261 258 255 256 261 262 260 256 254 255 244 239 242 239 246 257 261 268 267
233 236 237 239 241 243 247 250 250 250 250 251 252 256 259 261 262 266 268 266 263 268 273 278 279 273 266 262 261 265 266 266 268 265 259 249 225 226 240 243 252 259 262 255
250 247 245 243 241 242 245 248 250 251 252 253 254 258 262 264 267 267 268 266 265 266 271 275 277 277 275 267 261 266 270 274 280 277 264 242 217 223 248 250 253 254 263 261
277 268 253 245 244 244 247 250 252 254 253 255 255 255 258 261 263 264 266 266 266 266 270 274 281 286 282 273 262 263 272 279 284 277 272 255 241 243 252 251 260 264 263 259
280 280 268 249 245 251 250 251 256 262 260 257 255 255 257 259 260 259 260 261 263 266 271 275 279 285 285 282 268 262 272 277 284 277 272 281 268 261 243 240 258 262 254 251
278 281 281 263 246 247 259 261 263 267 263 256 253 254 255 257 258 256 255 255 256 259 263 267 273 279 286 287 275 260 269 268 271 281 298 306 267 265 262 241 243 250 251 253
277 259 265 282 271 258 258 261 266 266 269 268 262 257 256 254 254 254 255 255 256 256 259 264 264 268 288 303 289 252 257 267 270 279 293 269 258 261 249 237 236 244 253 260
274 267 271 275 274 273 274 276 279 277 269 266 262 258 260 259 255 254 256 256 254 254 255 262 266 268 285 300 291 247 239 248 256 267 270 262 251 250 252 252 254 257 259 262
279 276 277 276 273 272 272 271 271 268 260 255 259 260 262 257 254 251 252 253 254 253 257 269 272 279 278 267 262 245 248 259 275 278 270 262 259 258 258 257 257 258 259 262
280 279 281 278 277 277 274 266 261 257 254 248 248 255 257 249 246 249 252 251 246 245 258 265 260 257 255 259 261 258 261 270 275 275 272 268 268 264 259 254 251 253 257 261
286 281 283 280 279 278 275 267 259 255 257 255 253 251 241 236 234 243 248 251 257 259 262 264 259 255 260 263 265 270 274 275 273 273 273 273 272 270 267 265 260 256 256 259
271 275 282 283 276 273 276 275 266 257 255 254 256 254 246 251 252 259 261 261 263 265 271 272 267 261 263 264 265 268 269 272 272 269 268 269 270 272 273 273 270 266 262 261
280 283 283 277 271 271 271 270 268 262 257 252 254 260 265 263 265 265 265 264 266 270 273 275 275 271 268 267 266 266 267 267 268 269 267 265 266 268 269 271 271 269 267 265
292 292 286 277 269 266 274 275 269 261 251 248 248 256 268 251 244 245 245 252 262 272 277 281 282 280 275 270 268 268 269 268 265 264 263 262 261 262 263 265 264 263 262 258
295 291 294 292 281 286 276 270 268 265 263 267 264 254 244 230 224 231 241 253 272 277 278 278 277 275 274 272 269 268 269 269 268 266 265 263 260 259 259 260 262 260 259 258
314 283 290 294 288 283 287 284 273 269 273 267 262 247 248 244 263 264 263 271 275 275 278 277 275 274 272 272 272 273 273 271 269 266 264 263 264 266 266 266 265 262 259 257
345 324 293 295 297 285 279 278 278 273 279 272 267 266 262 258 263 269 270 272 274 275 280 284 285 282 278 276 276 279 278 274 270 266 262 261 260 262 265 267 269 267 260 258
353 343 324 301 291 289 285 278 274 277 271 270 271 269 265 265 271 275 275 270 269 281 294 297 295 290 284 280 280 281 278 273 271 268 263 261 262 260 261 264 267 266 260 257
7 355 344 329 310 305 299 285 269 265 255 255 273 273 268 269 267 269 262 255 270 289 301 304 299 294 287 281 279 277 271 268 271 269 262 265 262 263 263 265 266 263 255 241
18 20 17 7 353 341 327 313 276 274 267 257 271 282 276 272 272 271 256 261 278 291 296 300 296 295 293 289 282 268 262 264 264 262 261 260 257 261 271 272 271 267 264 260
19 22 27 27 28 29 23 21 357 332 303 278 279 283 284 285 285 276 266 277 292 295 294 294 291 294 302 301 292 275 258 260 260 256 253 251 254 256 256 272 278 274 274 275
16 19 24 30 35 41 42 39 28 9 342 324 314 306 301 297 296 291 286 285 288 288 289 288 289 293 295 295 295 287 268 262 263 260 254 251 252 266 276 276 269 266 269 270
4 11 19 27 30 37 40 43 42 31 6 345 329 317 307 300 297 297 295 293 294 296 294 290 287 283 279 279 282 286 283 272 268 270 273 276 278 279 277 267 261 264 265 267
Height
5822 5826 5828 5830 5833 5836 5839 5841 5842 5844 5846 5849 5852 5856 5859 5859 5860 5862 5864 5867 5868 5869 5871 5874 5874 5874 5875 5875 5874 5871 5869 5866 5865 5867 5870 5871 5871 5872 5874 5876 5878 5879 5880 5880
5819 5821 5823 5825 5828 5830 5834 5837 5838 5839 5841 5843 5847 5850 5850 5852 5853 5854 5857 5860 5862 5863 5862 5863 5864 5866 5867 5868 5867 5864 5861 5858 5858 5857 5858 5861 5860 5861 5864 5866 5869 5871 5873 5873
5811 5815 5817 5820 5823 5825 5827 5831 5834 5835 5836 5836 5840 5842 5843 5844 5845 5848 5851 5853 5854 5853 5853 5855 5856 5858 5859 5859 5859 5857 5852 5848 5845 5844 5845 5845 5847 5848 5852 5854 5858 5861 5863 5865
5805 5808 5811 5813 5816 5819 5822 5824 5826 5828 5829 5830 5833 5834 5836 5837 5838 5840 5843 5845 5845 5845 5845 5845 5846 5847 5848 5848 5847 5844 5840 5838 5834 5834 5831 5825 5826 5834 5837 5843 5846 5850 5852 5853
5800 5802 5804 5806 5809 5811 5813 5816 5818 5821 5823 5824 5824 5824 5826 5828 5831 5833 5834 5835 5837 5836 5836 5835 5833 5832 5833 5834 5833 5830 5828 5824 5823 5828 5831 5828 5815 5821 5826 5831 5835 5841 5843 5843
5797 5797 5798 5800 5801 5803 5804 5806 5808 5810 5813 5816 5818 5818 5818 5819 5821 5823 5824 5825 5827 5827 5826 5825 5822 5822 5823 5824 5821 5819 5816 5815 5812 5816 5820 5820 5808 5811 5816 5823 5827 5834 5837 5839
5792 5791 5791 5793 5794 5795 5796 5798 5799 5801 5802 5805 5807 5808 5809 5810 5811 5813 5815 5816 5818 5818 5817 5817 5815 5815 5816 5816 5815 5812 5810 5807 5804 5807 5809 5811 5813 5810 5809 5818 5821 5825 5829 5831
5788 5786 5786 5787 5789 5789 5790 5791 5792 5792 5792 5794 5796 5797 5799 5800 5801 5804 5806 5808 5808 5809 5809 5809 5808 5808 5809 5810 5809 5807 5805 5802 5800 5802 5804 5800 5804 5805 5810 5816 5817 5818 5820 5823
5783 5782 5782 5781 5782 5784 5783 5784 5784 5785 5783 5784 5786 5789 5790 5790 5792 5794 5797 5800 5801 5802 5802 5802 5802 5802 5801 5801 5800 5799 5799 5799 5798 5797 5796 5797 5801 5803 5807 5810 5812 5811 5812 5815
5778 5778 5779 5778 5779 5777 5776 5776 5775 5775 5776 5776 5778 5781 5783 5784 5784 5787 5789 5791 5793 5795 5796 5795 5796 5796 5795 5793 5792 5792 5793 5793 5790 5789 5791 5791 5795 5796 5799 5801 5801 5801 5803 5806
5774 5773 5774 5774 5773 5771 5771 5771 5769 5769 5769 5771 5770 5774 5776 5777 5777 5779 5782 5784 5785 5786 5787 5787 5787 5788 5787 5786 5785 5784 5786 5788 5787 5788 5790 5791 5793 5793 5793 5794 5795 5795 5797 5799
5767 5767 5766 5765 5764 5763 5763 5762 5761 5763 5763 5764 5763 5768 5767 5769 5770 5772 5773 5775 5777 5778 5779 5779 5779 5780 5780 5780 5780 5781 5782 5782 5784 5785 5787 5787 5786 5787 5787 5789 5790 5790 5790 5791
5758 5757 5755 5754 5755 5754 5752 5753 5753 5754 5755 5755 5756 5760 5759 5759 5761 5763 5765 5767 5769 5771 5772 5772 5773 5773 5773 5773 5774 5776 5776 5777 5778 5779 5780 5780 5780 5781 5782 5782 5783 5783 5783 5784
5747 5746 5746 5744 5742 5742 5742 5743 5743 5744 5744 5745 5748 5750 5753 5752 5753 5756 5758 5760 5761 5763 5764 5765 5766 5766 5767 5766 5767 5768 5769 5770 5771 5772 5771 5771 5772 5772 5773 5774 5774 5774 5775 5776
5738 5736 5734 5733 5731 5731 5732 5733 5735 5735 5734 5737 5740 5741 5744 5745 5746 5747 5748 5751 5753 5755 5756 5757 5758 5759 5759 5759 5759 5759 5760 5761 5762 5763 5763 5762 5762 5762 5762 5763 5764 5764 5764 5766
5730 5727 5724 5723 5722 5721 5722 5724 5725 5725 5725 5727 5730 5733 5735 5737 5738 5740 5742 5742 5743 5744 5746 5747 5748 5750 5750 5750 5750 5750 5750 5751 5751 5752 5752 5751 5751 5750 5751 5751 5752 5753 5755 5756
5722 5720 5717 5715 5714 5712 5714 5715 5715 5716 5718 5720 5722 5726 5728 5730 5732 5733 5734 5737 5738 5738 5737 5737 5737 5737 5738 5737 5737 5738 5738 5738 5740 5741 5741 5740 5740 5740 5742 5742 5742 5743 5745 5746
5718 5715 5712 5710 5709 5709 5710 5708 5708 5710 5711 5713 5716 5720 5724 5722 5723 5724 5726 5729 5731 5731 5730 5729 5728 5726 5726 5726 5726 5726 5726 5726 5727 5728 5727 5727 5727 5728 5731 5731 5733 5736 5735 5736
5714 5711 5709 5706 5704 5704 5705 5704 5703 5705 5707 5710 5712 5714 5716 5718 5719 5719 5720 5721 5722 5721 5721 5721 5721 5720 5719 5718 5717 5717 5717 5717 5716 5716 5715 5716 5717 5717 5719 5720 5722 5723 5724 5726
5712 5708 5705 5702 5700 5700 5702 5701 5701 5703 5705 5706 5708 5710 5711 5713 5714 5714 5714 5714 5714 5714 5714 5713 5713 5712 5711 5711 5710 5709 5708 5707 5706 5706 5706 5707 5708 5709 5711 5712 5712 5713 5714 5715
5711 5706 5702 5700 5698 5697 5698 5698 5699 5702 5703 5703 5704 5705 5707 5708 5709 5709 5709 5709 5710 5709 5708 5707 5705 5703 5702 5701 5701 5701 5700 5699 5698 5698 5698 5699 5701 5703 5705 5705 5705 5705 5706 5707
5711 5706 5702 5699 5697 5698 5695 5694 5696 5698 5699 5701 5701 5701 5702 5704 5704 5704 5704 5704 5704 5703 5703 5701 5699 5696 5694 5693 5693 5693 5693 5693 5693 5693 5694 5695 5697 5697 5698 5698 5698 5699 5699 5701
5713 5708 5703 5699 5698 5694 5693 5693 5694 5696 5697 5698 5699 5698 5699 5699 5699 5699 5699 5699 5698 5697 5696 5695 5693 5691 5689 5688 5687 5687 5688 5688 5689 5690 5691 5691 5692 5693 5693 5694 5694 5694 5694 5694
5715 5710 5705 5700 5697 5694 5693 5693 5694 5695 5696 5697 5697 5696 5696 5696 5695 5695 5695 5695 5693 5692 5690 5689 5687 5686 5686 5684 5684 5684 5684 5685 5685 5685 5685 5686 5686 5687 5687 5688 5688 5688 5688 5687
5717 5713 5708 5704 5701 5698 5696 5695 5694 5694 5694 5694 5693 5693 5693 5693 5692 5692 5691 5690 5689 5687 5686 5685 5684 5683 5682 5682 5681 5681 5681 5681 5681 5681 5680 5681 5681 5681 5682 5681 5681 5681 5682 5681
5719 5716 5712 5708 5704 5701 5699 5697 5696 5695 5694 5693 5692 5691 5691 5691 5690 5689 5687 5686 5684 5683 5681 5680 5679 5678 5677 5677 5677 5677 5677 5676 5675 5675 5674 5675 5674 5673 5674 5676 5675 5674 5673 5672